This demonstration page uses our WeatherBlox Daily Observations layout. Learn more.

Left ArrowRight Arrow

44.8408, -93.29828

Hourly Observations for March 15, 2020

Temp ( °F °C ) Dew Point ( °F °C ) Humidity (%) Winds ( mph kmh ) Pressure ( in mb ) Visibility ( mi km ) Precip ( " mm )
12:53 am 00:53 Clear 26 -3.3 15 -9.4 63 63 NE 5 7 30.70 1040 10 16 0.00 0.00
1:53 am 01:53 Mostly Clear 25 -3.9 16 -8.9 69 69 NE 7 11 30.71 1040 10 16 0.00 0.00
2:53 am 02:53 Mostly Clear 25 -3.9 16 -8.9 69 69 ENE 3 6 30.71 1040 10 16 0.00 0.00
3:53 am 03:53 Partly Cloudy 24 -4.4 16 -8.9 71 71 Calm 30.71 1040 10 16 0.00 0.00
4:53 am 04:53 Mostly Clear 23 -5 15 -9.4 72 72 NNE 3 6 30.71 1040 10 16 0.00 0.00
5:53 am 05:53 Mostly Clear 22 -5.6 15 -9.4 75 75 N 5 7 30.72 1040 10 16 0.00 0.00
6:53 am 06:53 Mostly Clear 21 -6.1 15 -9.4 78 78 NNE 5 7 30.73 1041 10 16 0.00 0.00
7:53 am 07:53 Mostly Sunny 23 -5 16 -8.9 74 74 ENE 3 6 30.74 1041 10 16 0.00 0.00
8:53 am 08:53 Mostly Sunny 26 -3.3 18 -7.8 71 71 ESE 7 11 30.73 1041 10 16 0.00 0.00
9:53 am 09:53 Mostly Sunny 28 -2.2 19 -7.2 69 69 SE 6 9 30.73 1041 10 16 0.00 0.00
10:53 am 10:53 Sunny 33 0.6 19 -7.2 56 56 SSE 7 11 30.72 1040 10 16 0.00 0.00
11:53 am 11:53 Partly Cloudy 35 1.7 19 -7.2 52 52 SE 10 17 30.69 1039 10 16 0.00 0.00
12:53 pm 12:53 Mostly Sunny 36 2.2 20 -6.7 52 52 SSE 9 15 30.67 1039 10 16 0.00 0.00
1:53 pm 13:53 Mostly Cloudy 37 2.8 21 -6.1 52 52 SE 6 9 30.65 1038 10 16 0.00 0.00
2:53 pm 14:53 Partly Cloudy 39 3.9 21 -6.1 48 48 SE 13 20 30.59 1036 10 16 0.00 0.00
3:53 pm 15:53 Partly Cloudy 39 3.9 20 -6.7 46 46 SE 12 19 30.58 1035 10 16 0.00 0.00
4:53 pm 16:53 Mostly Cloudy 39 3.9 21 -6.1 48 48 S 9 15 30.55 1035 10 16 0.00 0.00
5:53 pm 17:53 Mostly Cloudy 38 3.3 21 -6.1 51 51 SSE 9 15 30.53 1034 10 16 0.00 0.00
6:53 pm 18:53 Mostly Cloudy 38 3.3 21 -6.1 51 51 S 6 9 30.51 1033 10 16 0.00 0.00
7:53 pm 19:53 Mostly Cloudy 36 2.2 21 -6.1 55 55 SSE 6 9 30.48 1032 10 16 0.00 0.00
8:53 pm 20:53 Mostly Cloudy 35 1.7 22 -5.6 59 59 SE 5 7 30.46 1032 10 16 0.00 0.00
9:53 pm 21:53 Cloudy 35 1.7 22 -5.6 59 59 SSE 8 13 30.45 1031 10 16 0.00 0.00
10:53 pm 22:53 Cloudy 35 1.7 23 -5 61 61 S 10 17 30.43 1031 10 16 0.00 0.00
11:53 pm 23:53 Cloudy 35 1.7 24 -4.4 64 64 S 10 17 30.41 1030 10 16 0.00 0.00

Powered by AerisWeather